[[{"header":{"parameterUnit":"m.s-1","parameterCategory":1,"la1":30.2991,"la2":30.254,"lo1":-89.0895,"lo2":-89.0444,"dy":0.0017,"dx":0.0017,"nx":28,"ny":28,"refTime":"2025-04-30T09:00:00:Z","depth":0,"parameterNumber":2,"parameterNumberName":"U-component_of_WINDS"},"data":[0,0,0,0,0,0,0,0,0,0,0,0,0,0,0,0,0,0,0,0,0,0,0,0,0,0,0,0,0,0,0,0,0,0,0,0,0,0,0,0,0,0,0,0,0,0,0,0,0,0,0,0,0,0,0,0,0,0,0.5026,0.5026,0,0.499,0.4989,0.4989,0.4957,0.4957,0.4956,0.4956,0.4918,0.4917,0.4916,0,0,0,0,0,0,0,0,0,0,0,0,0,0.5067,0.5067,0.5026,0.5026,0.5025,0.499,0.4989,0.4989,0.4957,0.4957,0.4956,0.4956,0.4918,0.4917,0.4916,0,0,0,0,0,0,0,0,0,0,0,0,0,0.5042,0.5067,0.5026,0.5005,0.5003,0.499,0.4989,0.4989,0.4957,0.4957,0.4956,0.4956,0.4918,0.4917,0.4916,0.4921,0,0,0.4913,0.4913,0,0,0,0,0,0,0,0,0.5044,0.5041,0.5009,0.5007,0.5004,0.4977,0.499,0.4966,0.4957,0.4975,0.4956,0.4955,0.4938,0.4935,0.493,0.4919,0.4917,0.4913,0.4912,0.4912,0.4912,0,0,0,0,0,0,0,0.5045,0.5042,0.5012,0.5009,0.5006,0.4997,0.4993,0.4985,0.496,0.4973,0.4971,0.4967,0.4937,0.4931,0.4929,0.4917,0.4913,0.4912,0.4912,0.4911,0.4905,0.4906,0,0,0,0,0,0,0.505,0.5044,0.5013,0.5011,0.5023,0.4997,0.4992,0.4987,0.496,0.4955,0.4967,0.4966,0.4933,0.493,0.4927,0.4929,0.4912,0.4911,0.491,0.4905,0.4906,0.4906,0,0,0,0,0,0,0.5051,0.5048,0.5014,0.5026,0.5022,0.4997,0.4991,0.4986,0.498,0.4955,0.4951,0.4966,0.4932,0.4928,0.4922,0.4927,0.4911,0.491,0.4904,0.4905,0.4906,0.4934,0,0,0,0,0,0,0.5053,0.5049,0.505,0.5027,0.5021,0.5011,0.4991,0.4986,0.4979,0.4976,0.4953,0.4949,0.4931,0.4924,0.4921,0.4925,0.4909,0.4904,0.4905,0.4906,0.4932,0.4935,0.4938,0,0,0,0,0,0.5054,0.506,0.5051,0.5047,0.5023,0.5011,0.5008,0.4988,0.4979,0.498,0.4964,0.4949,0.4927,0.4923,0.492,0.4924,0.4903,0.4905,0.4906,0.4931,0.4935,0.4938,0,0,0,0,0,0,0.5085,0.5057,0.5046,0.5044,0.503,0.5006,0.5007,0.4993,0.4981,0.4979,0.4955,0.495,0.4946,0.4935,0.4931,0.4926,0.4913,0.4914,0.4934,0.4937,0.494,0.4942,0.4908,0,0,0,0,0,0.5091,0.5085,0.506,0.5061,0.5054,0.5032,0.5026,0.5012,0.4997,0.4991,0.4974,0.4959,0.4949,0.4942,0.4932,0.4931,0.4924,0.4932,0.4935,0.4937,0.4937,0.4934,0.4937,0.491,0.491,0.491,0,0,0.5105,0.5088,0.5086,0.5066,0.5054,0.5047,0.5027,0.5021,0.5015,0.4989,0.4982,0.4969,0.4951,0.4947,0.4944,0.4937,0.4944,0.4938,0.4941,0.4939,0.4936,0.4938,0.4941,0.491,0.491,0.491,0,0,0.5125,0.5113,0.5111,0.5099,0.5081,0.5065,0.5065,0.5042,0.5033,0.5025,0.5006,0.4998,0.4981,0.4968,0.496,0.4974,0.4959,0.4971,0.4986,0.4983,0.4985,0.4987,0.4991,0.4993,0.4972,0.4972,0.4972,0,0.5144,0.5133,0.5112,0.5107,0.5098,0.5075,0.5073,0.5062,0.5041,0.5035,0.5027,0.5004,0.4991,0.4982,0.4986,0.498,0.4978,0.4974,0.4987,0.4988,0.499,0.4993,0.4995,0.4973,0.4973,0.4973,0.4973,0,0.5156,0.5149,0.515,0.5129,0.5121,0.5117,0.5095,0.5089,0.5076,0.5061,0.5053,0.5036,0.502,0.5017,0.5004,0.5007,0.5003,0.4991,0.4978,0.4994,0.4997,0.4998,0.4976,0.4975,0.4975,0.4974,0,0,0.5195,0.5163,0.5164,0.5153,0.5131,0.5124,0.5119,0.5104,0.5098,0.5084,0.5078,0.5064,0.5053,0.5043,0.5028,0.5026,0.5037,0.5015,0.5014,0.5018,0.5037,0.5045,0.5047,0.5027,0.5027,0.5027,0.5038,0,0.5211,0.52,0.5181,0.5176,0.5168,0.5145,0.514,0.5125,0.5111,0.5102,0.5086,0.5076,0.5063,0.5056,0.5053,0.5036,0.504,0.5035,0.502,0.502,0.5025,0.5048,0.5057,0.5067,0.5039,0.5039,0.5039,0,0.5228,0.5215,0.5209,0.5186,0.5182,0.5178,0.5161,0.5153,0.5135,0.5125,0.5114,0.5097,0.5089,0.5078,0.5065,0.5062,0.5055,0.5046,0.5046,0.5043,0.503,0.5045,0.5071,0.5072,0.5041,0.5041,0.5041,0,0.5255,0.5236,0.523,0.5222,0.5195,0.5193,0.5181,0.5163,0.5155,0.514,0.5134,0.512,0.5111,0.5099,0.5079,0.5073,0.5068,0.5055,0.5059,0.5059,0.5058,0.5059,0.5082,0.5055,0.5055,0.5055,0.5055,0,0.5274,0.5271,0.5242,0.5238,0.5233,0.5211,0.5207,0.5193,0.5177,0.5169,0.5149,0.5142,0.5116,0.5106,0.509,0.5081,0.5078,0.5068,0.5064,0.507,0.5071,0.5064,0.5062,0.5056,0.5056,0.5056,0.5056,0,0.5304,0.5284,0.5275,0.525,0.5244,0.5242,0.522,0.5214,0.5199,0.5189,0.5186,0.5161,0.5148,0.5127,0.5107,0.5096,0.509,0.5084,0.5096,0.5093,0.5098,0.5097,0.5117,0.5118,0.5092,0.5092,0.5092,0,0.5317,0.5314,0.5288,0.5282,0.5271,0.5261,0.5252,0.523,0.5221,0.52,0.5197,0.5182,0.5169,0.5149,0.5129,0.5113,0.5105,0.5113,0.5103,0.5108,0.5104,0.5104,0.5103,0.5116,0.5116,0.5116,0.5117,0,0.5341,0.5331,0.532,0.5305,0.5295,0.5282,0.5267,0.5263,0.5237,0.5229,0.5215,0.5205,0.5184,0.5169,0.5151,0.5138,0.5123,0.512,0.512,0.5125,0.5132,0.5127,0.5102,0.512,0.5119,0.5119,0.5119,0.5119,0.5362,0.5358,0.5339,0.5327,0.5313,0.53,0.5294,0.5278,0.5266,0.5248,0.5235,0.5222,0.5202,0.5176,0.5164,0.5152,0.5146,0.5146,0.5145,0.5146,0.5147,0.5135,0.5149,0.5149,0.5149,0.5149,0.5149,0,0.5385,0.5371,0.536,0.5341,0.533,0.5317,0.5301,0.5293,0.5281,0.5265,0.5252,0.5236,0.5221,0.5199,0.5182,0.5177,0.5169,0.5173,0.5173,0.517,0.5155,0.5156,0.518,0.518,0.518,0.518,0.518,0.518,0.5395,0.5387,0.5375,0.536,0.5346,0.5333,0.5324,0.5312,0.5298,0.5281,0.5268,0.5255,0.5236,0.5217,0.5202,0.5196,0.5191,0.5196,0.5188,0.5174,0.5171,0.5169,0.517,0.5196,0.5196,0.5204,0.5204,0.5204]},{"header":{"parameterUnit":"m.s-1","parameterCategory":1,"la1":30.2991,"la2":30.254,"lo1":-89.0895,"lo2":-89.0444,"dy":0.0017,"dx":0.0017,"nx":28,"ny":28,"refTime":"2025-04-30T09:00:00:Z","depth":0,"parameterNumber":3,"parameterNumberName":"V-component_of_WINDS"},"data":[0,0,0,0,0,0,0,0,0,0,0,0,0,0,0,0,0,0,0,0,0,0,0,0,0,0,0,0,0,0,0,0,0,0,0,0,0,0,0,0,0,0,0,0,0,0,0,0,0,0,0,0,0,0,0,0,0,0,3.0068,3.0069,0,3.0145,3.0145,3.0146,3.0131,3.0129,3.0128,3.0127,3.02,3.0203,3.0206,0,0,0,0,0,0,0,0,0,0,0,0,0,2.9904,2.9908,3.0068,3.0069,3.007,3.0144,3.0145,3.0146,3.0131,3.0129,3.0128,3.0126,3.0199,3.0202,3.0206,0,0,0,0,0,0,0,0,0,0,0,0,0,2.9977,2.9909,3.0068,3.0072,3.0073,3.0144,3.0145,3.0147,3.0131,3.0129,3.0127,3.0125,3.0197,3.0202,3.0207,3.0278,0,0,3.0221,3.0224,0,0,0,0,0,0,0,0,2.9973,2.9983,3.007,3.0072,3.0073,3.0126,3.0114,3.019,3.0132,3.0109,3.0127,3.0124,3.0176,3.0183,3.0202,3.0281,3.0284,3.0222,3.0225,3.0227,3.0228,0,0,0,0,0,0,0,2.9968,2.998,3.0098,3.0071,3.0073,3.0068,3.0076,3.0129,3.0153,3.0111,3.011,3.0119,3.0177,3.0197,3.0203,3.0285,3.0222,3.0226,3.0229,3.0231,3.0427,3.0429,0,0,0,0,0,0,2.9963,2.9976,3.0096,3.0101,3.0017,3.0072,3.0081,3.0111,3.0153,3.0157,3.0121,3.0118,3.019,3.0198,3.0206,3.0292,3.0227,3.0231,3.0234,3.0425,3.0428,3.043,0,0,0,0,0,0,2.9959,2.9974,3.0093,3.0038,3.0053,3.0077,3.0111,3.0114,3.0134,3.0161,3.0164,3.0138,3.0188,3.0199,3.026,3.0294,3.0234,3.0238,3.0422,3.0426,3.0429,3.0464,0,0,0,0,0,0,2.9955,2.9973,3.0001,3.0039,3.0056,3.0148,3.0113,3.0117,3.0143,3.014,3.0177,3.0181,3.0188,3.0253,3.0265,3.03,3.0242,3.0419,3.0424,3.0428,3.046,3.0469,3.0476,0,0,0,0,0,2.9949,3.0007,3.0003,3.0017,3.0092,3.015,3.0159,3.0167,3.0146,3.0174,3.0191,3.018,3.0288,3.026,3.0273,3.0309,3.0417,3.0422,3.0427,3.0457,3.0467,3.0476,0,0,0,0,0,0,2.997,3.0012,3.0007,3.008,3.0112,3.0147,3.0183,3.0178,3.0215,3.0211,3.0217,3.0226,3.0288,3.0305,3.0272,3.038,3.0349,3.0358,3.0367,3.0377,3.0385,3.0379,3.0246,0,0,0,0,0,2.9984,3.0029,3.0062,3.0122,3.0139,3.0158,3.0183,3.0187,3.0219,3.0232,3.0254,3.0284,3.0325,3.0352,3.0391,3.0463,3.047,3.0494,3.0502,3.0508,3.0515,3.0553,3.0564,3.0447,3.0447,3.0447,0,0,3.0011,3.0039,3.0067,3.0127,3.0152,3.0197,3.0169,3.0218,3.0251,3.0239,3.0299,3.0316,3.035,3.0417,3.0448,3.0433,3.0549,3.0515,3.0519,3.0523,3.056,3.0571,3.0581,3.0451,3.045,3.0449,0,0,3.0084,3.0111,3.0164,3.019,3.0229,3.0242,3.0255,3.0291,3.0303,3.0363,3.0356,3.0394,3.0464,3.0489,3.0511,3.0594,3.0585,3.0607,3.0647,3.0685,3.0694,3.0702,3.0731,3.0742,3.0613,3.0614,3.0614,0,3.0113,3.0182,3.0191,3.0242,3.0268,3.0261,3.0314,3.0339,3.0388,3.0405,3.0388,3.0477,3.05,3.0572,3.0593,3.0611,3.0625,3.0602,3.0692,3.07,3.0708,3.0736,3.0747,3.0616,3.0616,3.0615,3.0615,0,3.0215,3.0263,3.0301,3.0351,3.0382,3.0433,3.0449,3.0478,3.0479,3.0493,3.0554,3.0582,3.0626,3.0644,3.0644,3.0716,3.0706,3.0691,3.066,3.0722,3.0748,3.0759,3.0619,3.0618,3.0618,3.0617,0,0,3.0304,3.0359,3.0373,3.0395,3.0438,3.0474,3.0525,3.057,3.0595,3.0629,3.0671,3.0731,3.0718,3.0742,3.0746,3.0779,3.0843,3.0759,3.076,3.0774,3.0923,3.0935,3.0947,3.0837,3.0839,3.0841,3.092,0,3.0381,3.0472,3.0482,3.0563,3.0607,3.0601,3.0645,3.0675,3.0689,3.0727,3.0742,3.0785,3.0764,3.0779,3.0812,3.0828,3.0873,3.0822,3.0875,3.0877,3.0866,3.0961,3.0973,3.1046,3.0931,3.0933,3.0934,0,3.0483,3.0522,3.0608,3.0645,3.0664,3.0703,3.0746,3.0783,3.0816,3.0824,3.0853,3.0852,3.0902,3.087,3.0939,3.0904,3.0926,3.0937,3.094,3.0945,3.0909,3.0968,3.107,3.1081,3.095,3.0949,3.0948,0,3.0539,3.0612,3.0673,3.0693,3.0738,3.0765,3.0785,3.0817,3.0844,3.088,3.0897,3.0938,3.0961,3.0992,3.1002,3.0977,3.107,3.1039,3.1077,3.1077,3.1097,3.1096,3.1204,3.1111,3.1111,3.1111,3.1111,0,3.0624,3.0676,3.0699,3.0737,3.0795,3.0805,3.0862,3.088,3.0908,3.0948,3.0945,3.0982,3.0992,3.1031,3.1038,3.1094,3.1104,3.1111,3.1112,3.1111,3.1111,3.1126,3.1121,3.1114,3.1113,3.1113,3.1112,0,3.0695,3.0713,3.0779,3.0817,3.0828,3.0869,3.09,3.0935,3.0949,3.1,3.1012,3.1033,3.1078,3.1091,3.1145,3.115,3.1215,3.1212,3.1205,3.1205,3.1242,3.1239,3.1364,3.1381,3.1278,3.1279,3.1279,0,3.0748,3.0789,3.0832,3.0859,3.088,3.0924,3.0952,3.0963,3.0992,3.1034,3.1064,3.1109,3.1145,3.1217,3.1236,3.1277,3.1275,3.1316,3.128,3.1278,3.1275,3.1272,3.1276,3.1322,3.1323,3.1324,3.1325,0,3.0841,3.0848,3.0889,3.0934,3.0968,3.1003,3.1036,3.1058,3.1074,3.1106,3.1153,3.1182,3.1238,3.1282,3.1323,3.1341,3.1336,3.1336,3.1347,3.1346,3.134,3.1344,3.1223,3.1333,3.1332,3.1332,3.1331,3.1331,3.0905,3.0941,3.0977,3.1023,3.105,3.1081,3.1117,3.1136,3.1176,3.1223,3.1227,3.1278,3.1309,3.1365,3.1386,3.1424,3.1412,3.1428,3.1432,3.1436,3.1439,3.1335,3.1432,3.1432,3.1431,3.1431,3.1431,0,3.0996,3.102,3.1062,3.111,3.1146,3.114,3.1177,3.1207,3.1252,3.1283,3.132,3.1374,3.1417,3.144,3.1482,3.1509,3.1507,3.152,3.1517,3.1522,3.1448,3.1434,3.152,3.152,3.152,3.152,3.152,3.152,3.1049,3.1109,3.1121,3.1194,3.1216,3.1268,3.1289,3.1318,3.1343,3.1404,3.1441,3.1456,3.1484,3.1528,3.1567,3.1572,3.1588,3.1602,3.1606,3.1536,3.1527,3.1518,3.1505,3.1605,3.1605,3.1677,3.1677,3.1678]}]]